EHI
0 0 0 0 0 0 0 0 0 0 0 0 0 0 0 0 0 0 0 0 0 0 0 0 0 0 0 0 0 0 0 0 0 0 0 0 0 0 0 0 0 0 0 0 0 0 0 0 0
0 0 0 0 0 0 0 0 0 0 0 0 0 0 0 0 0 0 0 0 0 0 0 0 0 0 0 0 0 0 0 0 0 0 0 0 0 0 0 0 0 0 0 0 0 0 0 0 0
0 0 0 0 0 0 0 0 0 0 0 0 0 0 0 0 0 0 0 0 0 0 0 0 0 0 0 0 0 0 0 0 0 0 0 0 0 0 0 0 0 0 0 0 0 0 0 0 0
0 0 0 0 0 0 0 0 0 0 0 0 0 0 0 0 0 0 0 0 0 0 0 0 0 0 0 0 0 0 0 0 0 0 0 0 0 0 0 0 0 0 0 0 0 0 0 0 0
0 0 0 0 0 0 0 0 0 0 0 0 0 0 0 0 0 0 0 0 0 0 0 0 0 0 0 0 0 0 0 0 0 0 0 0 0 0 0 0 0 0 0 0 0 0 0 0 0
0 0 0 0 0 0 0 0 0 0 0 0 0 0 0 0 0 0 0 0 0 0 0 0 0 0 0 0 0 0 0 0 0 0 0 0 0 0 0 0 0 0 0 0 0 0 0 0 0
0 0 0 0 0 0 0 0 0 0 0 0 0 0 0 0 0 0 0 0 0 0 0 0 0 0 0 0 0 0 0 0 0 0 0 0 0 0 0 0 0 0 0 0 0 0 0 0 0
0 0 0 0 0 0 0 0 0 0 0 0 0 0 0 0 0 0 0 0 0 0 0 0 0 0 0 0 0 0 0 0 0 0 0 0 0 0 0 0 0 0 0 0 0 0 0 0 0
0 0 0 0 0 0 0 0 0 0 0 0 0 0 0 0 0 0 0 0 0 0 0 0 0 0 0 0 0 0 0 0 0 0 0 0 0 0 0 0 0 0 0 0 0 0 0 0 0
0 0 0 0 0 0 0 0 0 0 0 0 0 0 0 0 0 0 0 0 0 0 0 0 0 0 0 0 0 0 0 0 0 0 0 0 0 0 0 0 0 0 0 0 0 0 0 0 0
0 0 0 0 0 0 0 0 0 0 0 0 0 0 0 0 0 0 0 0 0 0 0 0 0 0 0 0 0 0 0 0 0 0 0 0 0 0 0 0 0 0 0 0 0 0 0 0 0
0 0 0 0 0 0 0 0 0 0 0 0 0 0 0 0 0 0 0 0 0 0 0 0 0 0 0 0 0 0 0 0 0 0 0 0 0 0 0 0 0 0 0 0 0 0 0 0 0
0 0 0 0 0 0 0 0 0 0 0 0 0 0 0 0 0 0 0 0 0 0 0 0 0 0 0 0 0 0 0 0 0 0 0 0 0 0 0 0 0 0 0 0 0 0 0 0 0
0 0 0 0 0 0 0 0 0 0 0 0 0 0 0 0 0 0 0 0 0 0 0 0 0 0 0 0 0 0 0 0 0 0 0 0 0 0 0 0 0 0 0 0 0 0 0 0 0
0 0 0 0 0 0 0 0 0 0 0 0 0 0 0 0 0 0 0 0 0 0 0 0 0 0 0 0 0 0 0 0 0 0 0 0 0 0 0 0 0 0 0 0 0 0 0 0 0
0 0 0 0 0 0 0 0 0 0 0 0 0 0 0 0 0 0 0 0 0 0 0 0 0 0 0 0 0 0 0 0 0 0 0 0 0 0 0 0 0 0 0 0 0 0 0 0 0
0 0 0 0 0 0 0 0 0 0 0 0 0 0 0 0 0 0 0 0 0 0 0 0 0 0 0 0 0 0 0 0 0 0 0 0 0 0 0 0 0 0 0 0 0 0 0 0 0
0 0 0 0 0 0 0 0 0 0 0 0 0 0 0 0 0 0 0 0 0 0 0 0 0 0 0 0 0 0 0 0 0 0 0 0 0 0 0 0 0 0 0 0 0 0 0 0 0
0 0 0 0 0 0 0 0 0 0 0 0 0 0 0 0 0 0 0 0 0 0 0 0 0 0 0 0 0 0 0 0 0 0 0 0 0 0 0 0 0 0 0 0 0 0 0 0 0
0 0 0 0 0 0 0 0 0 0 0 0 0 0 0 0 0 0 0 0 0 0 0 0 0 0 0 0 0 0 0 0 0 0 0 0 0 0 0 0 0 0 0 0 0 0 0 0 0
0 0 0 0 0 0 0 0 0 0 0 0 0 0 0 0 0 0 0 0 0 0 0 0 0 0 0 0 0 0 0 0 0 0 0 0 0 0 0 0 0 0 0 0 0 0 0 0 0
0 0 0 0 0 0 0 0 0 0 0 0 0 0 0 0 0 0 0 0 0 0 0 0 0 0 0 0 0 0 0 0 0 0 0 0 0 0 0 0 0 0 0 0 0 0 0 0 0
0 0 0 0 0 0 0 0 0 0 0 0 0 0 0 0 0 0 0 0 0 0 0 0 0 0 0 0 0 0 0 0 0 0 0 0 0 0 0 0 0 0 0 0 0 0 0 0 0
0 0 0 0 0 0 0 0 0 0 0 0 0 0 0 0 0 0 0 0 0 0 0 0 0 0 0 0 0 0 0 0 0 0 0 0 0 0 0 0 0 0 0 0 0 0 0 0 0
0 0 0 0 0 0 0 0 0 0 0 0 0 0 0 0 0 0 0 0 0 0 0 0 0 0 0 0 0 0 0 0 0 0 0 0 0 0 0 0 0 0 0 0 0 0 0 0 0
0 0 0 0 0 0 0 0 0 0 0 0 0 0 0 0 0 0 0 0 0 0 0 0 0 0 0 0 0 0 0 0 0 0 0 0 0 0 0 0 0 0 0 0 0 0 0 0 0
0 0 0 0 0 0 0 0 0 0 0 0 0 0 0 0 0 0 0 0 0 0 0 0 0 0 0 0 0 0 0 0 0 0 0 0 0 0 0 0 0 0 0 0 0 0 0 0 0
0 0 0 0 0 0 0 0 0 0 0 0 0 0 0 0 0 0 0 0 0 0 0 0 0 0 0 0 0 0 0 0 0 0 0 0 0 0 0 0 0 0 0 0 0 0 0 0 0
0 0 0 0 0 0 0 0 0 0 0 0 0 0 0 0 0 0 0 0 0 0 0 0 0 0 0 0 0 0 0 0 0 0 0 0 0 0 0 0 0 0 0 0 0 0 0 0 0
0 0 0 0 0 0 0 0 0 0 0 0 0 0 0 0 0 0 0 0 0 0 0 0 0 0 0 0 0 0 0 0 0 0 0 0 0 0 0 0 0 0 0 0 0 0 0 0 0
Wind_Speed
3 4 3 4 6 6 8 6 4 6 5 3 2 3 1 1 2 5 5 10 10 16 16 17 16 15 14 14 13 13 12 12 12 11 11 11 10 11 11 11 12 12 13 13 13 13 14 14 14
3 3 4 5 7 8 8 7 8 6 4 4 4 4 3 3 4 7 8 11 12 16 15 16 17 15 15 14 13 13 12 12 11 11 11 10 10 10 11 11 12 12 12 12 12 13 13 14 13
2 3 4 5 7 8 5 7 7 5 4 5 5 3 0 4 5 6 7 14 14 16 14 15 17 16 15 14 14 13 13 12 12 11 11 10 10 10 10 11 11 11 11 12 12 12 12 12 12
3 4 5 7 9 7 4 4 5 7 6 5 4 4 3 3 3 5 11 14 15 16 14 16 17 16 15 14 14 14 13 12 11 11 10 10 10 10 10 10 10 10 10 11 11 11 11 11 11
3 5 7 8 8 5 4 2 5 8 8 7 6 4 6 5 4 7 12 13 15 15 14 16 17 16 15 15 15 14 13 12 11 10 10 10 10 9 9 9 9 9 9 9 10 10 10 9 10
4 5 8 9 8 5 5 5 6 8 7 6 6 5 5 6 6 8 12 12 13 14 14 15 17 15 15 15 15 14 13 12 11 10 10 10 9 9 9 8 8 8 8 8 8 8 8 8 8
4 5 7 7 7 6 4 4 7 8 8 7 5 5 5 8 6 8 11 11 12 13 13 13 15 15 15 14 14 13 12 12 11 10 10 9 9 8 8 7 6 6 6 6 6 6 6 7 7
3 4 6 7 7 6 3 3 3 6 5 3 4 6 4 8 8 9 10 10 11 13 13 13 14 14 14 13 13 13 12 12 11 10 9 9 8 8 8 6 5 5 4 4 4 4 4 5 5
4 7 7 6 6 4 3 4 3 1 3 4 4 1 5 9 10 11 11 10 11 12 13 13 13 13 12 12 12 13 12 11 11 10 10 8 6 6 6 5 4 3 3 2 2 2 3 1 2
6 8 7 3 3 2 2 3 3 5 6 6 6 5 6 9 11 13 14 15 15 16 15 13 13 13 12 9 10 9 9 9 9 8 9 6 5 4 3 6 5 3 2 2 1 1 2 3 1
6 8 5 4 3 3 3 3 3 5 7 7 7 7 9 10 12 13 15 15 15 15 14 14 13 13 12 9 8 6 6 6 8 8 8 6 5 4 3 3 4 4 4 3 3 4 2 2 2
7 7 5 4 3 4 4 3 5 8 8 4 5 4 9 12 14 15 15 14 13 14 15 15 14 13 13 11 9 8 7 6 6 7 8 6 4 4 3 3 3 3 2 3 3 3 3 4 4
10 7 6 6 5 6 6 9 8 11 10 7 6 7 11 12 13 13 12 12 13 14 15 15 15 14 13 11 8 8 8 7 7 7 7 7 5 5 4 3 3 4 3 3 3 4 4 4 5
7 8 7 7 7 5 8 11 8 12 9 9 9 11 12 13 13 12 12 13 14 14 15 15 16 16 14 11 10 9 8 7 8 7 8 8 6 5 5 5 4 4 3 3 4 5 4 4 4
4 7 9 8 7 5 6 11 11 11 7 9 10 11 11 12 12 13 13 14 14 14 14 15 15 16 16 14 12 9 8 8 7 7 8 8 7 6 5 5 4 4 3 4 4 4 4 4 5
6 8 9 6 5 5 7 13 7 4 6 10 10 10 10 11 12 13 12 12 12 12 14 14 12 15 16 14 12 9 8 8 7 6 7 8 8 7 5 4 4 4 3 3 3 3 4 4 5
9 10 10 6 5 5 8 11 8 5 8 11 12 12 11 11 12 12 12 12 12 13 13 14 15 16 16 14 11 10 8 8 6 6 6 7 8 7 6 4 4 4 3 3 3 3 4 4 4
10 10 9 8 4 6 9 13 13 11 11 14 14 14 13 14 14 11 11 11 11 12 13 14 15 15 15 12 9 8 7 6 5 5 6 7 6 6 6 4 4 3 3 3 3 3 3 3 4
9 10 12 10 4 6 12 16 16 14 14 15 15 15 15 15 12 9 10 10 11 12 13 14 15 15 13 11 10 9 8 7 5 5 6 7 6 6 5 4 4 3 3 3 3 3 3 2 3
13 14 14 11 5 7 12 17 17 16 16 15 16 15 14 13 10 10 11 11 12 13 13 14 15 16 15 12 10 8 8 5 5 5 5 6 6 6 5 5 4 4 3 3 3 2 2 1 1
16 16 15 13 9 8 10 16 13 12 12 13 15 15 14 12 12 11 12 12 12 13 14 13 15 16 15 14 9 8 6 5 5 6 5 6 6 6 6 5 4 4 3 3 3 2 3 2 1
17 13 13 12 12 10 7 13 13 13 13 13 12 11 10 9 9 10 11 13 13 12 11 13 14 15 15 14 13 14 10 9 8 7 6 7 7 6 6 6 5 4 3 3 3 2 2 3 2
12 7 9 10 12 14 12 13 12 9 12 11 8 6 7 7 8 9 11 11 11 11 11 12 13 14 15 15 15 15 12 9 7 8 9 8 7 6 6 6 5 5 3 3 3 3 2 2 3
8 6 4 5 8 15 14 13 12 8 9 10 8 8 7 6 6 7 8 10 10 10 11 11 13 14 14 14 14 14 13 12 12 11 10 8 6 6 7 6 5 5 4 4 3 3 3 3 3
13 10 7 8 9 10 5 10 12 9 9 10 12 12 9 6 5 7 10 11 11 12 12 12 14 14 14 14 14 13 13 14 14 12 11 9 7 6 7 6 6 5 4 4 3 3 3 4 4
18 17 12 8 9 5 6 11 9 8 8 10 10 10 8 5 5 7 10 11 12 13 13 14 15 14 14 14 13 12 12 10 9 11 10 9 7 7 8 7 6 5 5 4 4 3 4 4 5
14 16 15 13 10 10 10 9 9 10 9 7 6 6 5 3 4 7 9 11 12 13 14 14 15 14 14 13 13 12 12 10 10 10 9 7 7 6 8 7 6 6 5 5 4 4 4 4 5
13 12 8 10 9 12 11 12 10 9 8 5 4 4 3 1 3 6 8 10 11 12 12 13 14 14 14 13 12 9 11 11 10 10 10 9 9 8 8 7 6 6 5 5 5 4 4 5 5
14 15 12 11 11 9 9 7 6 8 5 5 4 3 3 1 3 6 8 10 11 11 12 13 13 13 13 13 12 12 11 11 11 10 10 9 9 9 8 7 6 6 6 5 5 6 5 6 7
19 19 19 14 12 10 10 8 4 7 7 6 6 3 2 2 3 6 8 10 11 12 13 13 13 13 13 13 12 12 11 11 11 10 10 10 9 8 8 7 7 6 6 6 6 6 7 7 8
Wind_Direction
272 290 267 226 215 221 217 191 188 165 173 151 148 193 198 45 15 64 95 149 145 154 158 163 165 162 157 150 141 134 127 122 117 111 106 99 93 86 81 76 73 70 67 65 65 64 63 62 62
286 274 227 219 224 213 201 195 193 173 127 131 153 174 175 116 70 102 134 154 155 156 160 162 161 161 157 152 145 139 134 130 125 118 111 104 97 90 85 80 77 73 69 67 66 65 63 62 61
233 259 225 206 224 223 191 188 191 153 155 175 163 180 231 110 123 127 134 154 158 159 162 156 163 163 159 156 151 143 139 134 130 124 118 110 103 95 89 83 79 76 73 70 68 65 64 62 62
226 210 218 225 216 219 221 167 167 169 171 190 186 164 144 80 90 107 136 156 160 161 163 157 167 166 164 160 154 147 145 140 137 130 125 117 108 101 93 88 84 80 77 74 72 68 64 62 62
233 219 209 217 218 210 222 220 194 193 178 180 199 180 143 116 105 128 150 160 163 162 163 161 171 171 167 162 156 152 150 148 144 138 132 123 115 107 101 96 90 84 80 77 74 70 67 62 60
209 222 218 214 207 208 214 205 203 208 187 178 200 202 138 124 142 145 157 165 166 163 165 162 172 172 170 167 161 158 157 154 151 146 139 131 124 118 111 104 97 90 84 79 75 71 67 64 61
229 219 226 220 214 211 201 192 213 207 202 190 201 213 154 140 129 148 160 163 167 167 169 168 172 174 174 171 166 164 162 160 157 154 147 139 133 130 123 114 108 100 93 85 79 74 69 64 58
261 229 217 216 216 204 166 184 222 225 209 154 209 228 174 127 134 146 154 163 169 173 177 175 176 177 176 174 170 166 167 167 163 158 147 142 145 144 136 138 125 120 115 103 91 82 73 64 54
237 233 222 211 215 191 164 189 165 227 186 175 208 291 70 121 143 149 157 168 175 182 184 183 181 180 179 177 169 170 172 169 167 160 148 158 165 154 157 139 150 157 143 126 115 84 77 89 115
219 231 223 217 227 205 187 219 176 192 202 197 195 173 141 156 169 175 178 179 183 187 188 187 186 183 181 177 175 180 180 175 182 174 172 176 171 162 162 151 185 194 195 196 162 128 190 252 277
216 233 223 223 239 254 232 230 208 227 229 225 225 203 176 184 193 199 198 193 190 187 187 190 189 187 184 181 182 181 180 177 184 182 179 179 176 175 189 186 188 201 210 220 204 224 257 290 309
223 228 231 229 207 227 243 244 235 238 254 266 261 234 192 201 206 209 207 201 191 189 190 192 191 190 191 188 187 185 183 182 183 184 188 186 184 193 201 213 212 218 219 234 246 261 263 272 279
225 230 229 239 233 245 252 250 260 254 258 262 251 232 225 223 221 218 216 206 195 194 192 194 194 193 192 192 191 192 188 187 186 186 193 193 192 196 203 215 219 230 237 236 246 258 266 269 279
224 228 233 240 238 230 246 259 251 256 259 254 244 240 237 234 230 222 212 208 201 198 194 193 196 196 193 194 194 194 191 190 192 190 194 195 197 201 208 217 222 231 235 245 256 264 272 279 282
216 234 242 233 230 226 241 253 241 256 253 254 251 247 243 240 233 228 218 212 206 200 195 193 195 196 196 197 197 195 193 191 193 193 195 197 201 205 210 217 221 227 232 241 256 263 271 277 278
204 230 241 217 212 198 227 259 254 235 245 264 265 257 246 241 235 230 223 215 209 200 195 192 190 196 196 196 196 195 194 193 193 192 195 198 203 206 209 215 222 223 223 232 244 258 263 268 276
216 234 241 234 198 198 229 267 274 258 261 270 269 264 253 246 236 227 219 213 207 202 195 191 190 193 193 193 193 192 190 193 189 188 190 193 201 203 208 216 221 213 212 223 234 252 271 282 289
220 231 239 244 197 215 248 268 277 275 266 270 270 266 258 249 241 226 212 207 203 200 195 191 189 189 187 186 187 184 184 186 184 183 186 189 193 197 203 204 207 201 207 218 231 250 266 289 302
240 244 253 258 241 247 266 275 279 280 271 267 266 264 259 254 248 223 208 199 194 192 191 189 186 184 182 180 182 181 182 179 176 175 177 181 181 186 189 189 190 198 212 222 233 248 256 272 312
231 243 255 265 246 256 278 279 278 273 267 266 269 269 266 261 243 216 204 195 193 188 186 185 185 181 182 182 180 181 172 169 163 161 166 172 174 174 177 185 181 185 196 206 213 227 258 265 297
227 239 250 262 274 250 280 277 266 266 264 265 265 266 265 261 249 223 206 197 192 188 185 182 181 180 181 177 167 152 144 144 158 165 162 167 168 167 170 178 177 176 188 194 198 212 241 263 251
233 232 247 259 268 273 277 290 283 278 276 270 269 267 264 263 248 228 208 198 193 187 180 179 177 178 178 175 174 172 175 176 178 169 160 157 162 161 165 167 166 167 175 179 183 212 239 259 262
232 224 227 245 260 271 257 269 277 270 269 274 281 284 279 272 251 227 208 198 189 178 176 176 174 176 177 180 180 181 182 174 160 157 156 155 155 158 161 162 162 165 170 174 178 197 220 246 265
172 142 160 221 251 259 256 255 275 256 261 284 297 299 297 286 255 223 200 186 178 171 171 173 173 174 176 180 181 185 177 166 160 164 162 161 157 160 164 165 166 168 167 172 183 200 218 239 251
189 204 224 229 225 248 224 241 259 265 263 280 293 301 303 288 244 205 189 183 177 174 172 173 173 172 176 180 182 182 177 173 171 170 171 167 165 168 169 170 173 171 171 176 187 205 223 234 246
199 210 220 240 248 246 195 239 257 274 280 278 280 288 291 274 232 205 195 188 181 177 175 175 175 173 176 179 180 178 174 174 173 174 171 173 171 169 168 173 174 173 175 182 196 215 225 238 245
193 215 232 254 270 272 250 247 271 270 267 272 283 291 295 273 223 204 196 191 184 181 180 179 176 174 176 177 175 174 173 172 168 168 169 168 163 159 168 172 174 176 183 195 206 227 231 241 249
214 195 194 219 241 249 251 251 250 250 256 273 296 311 315 272 209 200 196 192 188 184 181 181 180 177 175 174 173 171 172 169 164 165 168 166 164 164 169 175 180 184 193 204 216 233 240 247 251
186 194 204 215 231 244 256 241 219 243 253 275 292 311 312 261 200 196 194 191 186 182 182 183 182 178 176 175 172 170 168 166 166 169 170 168 167 170 175 179 186 195 204 213 224 234 240 250 256
206 205 203 211 215 230 257 260 183 234 250 260 273 289 303 269 212 196 192 188 186 186 186 186 185 182 179 175 173 170 165 166 170 171 170 171 172 175 179 184 194 204 214 223 233 242 245 251 257